OPS 4682 DEB, 38419

Orbit data source: Space-Track

OPS 4682 DEB, 38419 is space debris in LEO originally from a launch on Sat, 03 Apr 1965 UTC launched from the Air Force Western Test Range (AFWTR). Debris objects in space refer to the collection of defunct objects orbiting the Earth. Examples of debris include non-operational satellites, rocket bodies, and fragments generated from explosions, collisions, or faulty payload assembly.

Loading next visibility...
Identifier
38419, 1965-027DY
Orbit
LEO
Country
Flag of USUS
Related business
Manufacturer
Unknown
Mission
Spacecraft
Bus & Motor
Unknown
Mass
Unknown
Launch date (UTC)
1965-04-03 (61 years ago)
Launch vehicle
Unknown
Launch site
Air Force Western Test Range (AFWTR)
Object type
Payload
Rocket body
Debris
Shape & HBR
Unknown shape, 0.1 m
Radar Cross Section
Small (<0.1 m²)

Expand to show TLE details & history
Last TLE update: 3 days ago

TLE from 3 days ago
0 OPS 4682 DEB
1 38419U 65027DY  25305.84980565  .00000444  00000-0  15540-2 0  9994
2 38419  90.2398   0.8446 0031887  57.1955 303.2229 12.95059412271648
Epoch: 2025-11-01T20:23Z
TLE epoch observation values (Epoch: 2025-11-01T20:23:43.208Z)
Latitude
0.00003°
Longitude
13.54059°
Altitude
1,271.052 km
Speed
7.226 km/s
True Right ascension
00h 03m 22s
True Declination
0° 00' 00"
Sunlit
Object was in full shadow at epoch
Visualization orbit readout
Latitude
Unknown
Longitude
Unknown
Altitude
Unknown
Speed
Unknown
Apparent Right ascension
Unknown
Apparent Declination
Unknown
Sunlit
N/A
Visualization observer readout
Local Sidereal Time
06:37:29
Azimuth
Unknown
Elevation
Unknown
Doppler factor
Unknown
Orbital elements
Apogee altitude
1,303.055 km
Perigee altitude
1,254.225 km
Semi-major axis
7,656.777 km
Eccentricity
0.00319
Inclination
90.2398°
RAAN
0.8446°
Arg. of periapsis
57.1955°
True anomaly
302.91656°
Mean anomaly
303.2229°
Eccentric anomaly
303.0698°
Mean motion
3.23947 °/min
Orbital period
111.13 mins
BSTAR
0.001554
Loading maneuver chart data...
Computing Atmospheric mass density...
Loading historical data...
Loading historical data...
Loading historical data...
Loading historical data...
Loading historical data...
Loading historical data...
Loading historical data...

Documentation

Showing up to 5 results
|